Weather History for Detroit Metro, MI

Change the Weather History Date:

Thursday, December 12, 2013

  Actual Average Record
Temperature  
Mean Temperature 12 °F 31 °F  
Max Temperature 19 °F 37 °F 61 °F (1949)
Min Temperature 5 °F 25 °F -2 °F (1988)
Degree Days  
Heating Degree Days 53 34  
Month to date heating degree days 444 385  
Since 1 July heating degree days 1746 1600  
Cooling Degree Days 0 0  
Month to date cooling degree days 0 0  
Year to date cooling degree days 891 803  
Moisture  
Dew Point 3 °F    
Average Humidity 67    
Maximum Humidity 83    
Minimum Humidity 51    
Precipitation  
Precipitation T in 0.08 in 1.39 in (1946)
Month to date precipitation 0.17 0.99  
Year to date precipitation 37.65 32.00  
Snow  
Snow T in 0.30 in 6.30 in (2010)
Month to date snowfall 1.3 2.9  
Since 1 July snowfall 2.5 4.5  
Snow Depth 1.00 in    
Sea Level Pressure  
Sea Level Pressure 30.37 in    
Wind  
Wind Speed 13 mph (SW)    
Max Wind Speed 22 mph    
Max Gust Speed 25 mph    
Visibility 9 miles    
Events Snow    
T = Trace of Precipitation, MM = Missing Value Source: NWS Daily Summary

Daily Weather History Graph

Daily Weather History Graph

Search for Another Location

Airport:

Trip Planner

Search our weather history database for the weather conditions in past years. The results will help you decide how hot, cold, wet, or windy it might be!

Date:

Astronomy

Dec. 12, 2013 Rise Set
Actual Time 7:53 AM EST 5:01 PM EST
Civil Twilight 7:21 AM EST 5:33 PM EST
Nautical Twilight 6:45 AM EST 6:08 PM EST
Astronomical Twilight 6:11 AM EST 6:42 PM EST
Moon 2:11 PM EST (12/12) 3:10 AM EST (12/12)
Length of Visible Light 10h 11m
Length of Day
9h 08m
Waxing Gibbous, 80% of the Moon is Illuminated
Dec 12
Waxing Gibbous
Dec 17
Full
Dec 25
Last Quarter
Jan 1
New
Jan 7
First Quarter

Hourly Weather History & Observations

Time (EST) Temp. Windchill Dew Point Humidity Pressure Visibility Wind Dir Wind Speed Gust Speed Precip Events Conditions
12:53 AM 7.0 °F -1.7 °F -0.9 °F 70% 30.47 in 10.0 mi West 4.6 mph - N/A   Clear
1:53 AM 6.1 °F -0.9 °F -0.9 °F 73% 30.46 in 10.0 mi SSW 3.5 mph - N/A   Clear
2:53 AM 6.1 °F -8.7 °F -0.9 °F 73% 30.49 in 10.0 mi SSW 10.4 mph - N/A   Scattered Clouds
3:53 AM 8.1 °F -3.2 °F 1.0 °F 73% 30.48 in 10.0 mi SW 6.9 mph - N/A   Mostly Cloudy
4:00 AM 8.6 °F -3.7 °F 1.4 °F 73% 30.44 in 10.0 mi SSW 8.1 mph - N/A   Overcast
4:47 AM 8.6 °F -3.7 °F 3.2 °F 79% 30.43 in 2.5 mi SSW 8.1 mph - 0.00 in Snow Light Snow
4:53 AM 10.0 °F -1.9 °F 5.0 °F 80% 30.46 in 2.5 mi SW 8.1 mph - 0.00 in Snow Light Snow
5:17 AM 10.4 °F -1.5 °F 6.8 °F 85% 30.42 in 4.0 mi SSW 8.1 mph - 0.00 in Snow Light Snow
5:53 AM 10.9 °F -1.8 °F 7.0 °F 84% 30.47 in 6.0 mi SW 9.2 mph - 0.00 in Snow Light Snow
6:53 AM 10.9 °F -3.4 °F 6.1 °F 81% 30.45 in 10.0 mi SSW 11.5 mph - 0.00 in   Overcast
7:53 AM 10.9 °F -2.6 °F 5.0 °F 77% 30.44 in 10.0 mi SSW 10.4 mph - N/A   Mostly Cloudy
8:53 AM 10.9 °F -5.4 °F 5.0 °F 77% 30.45 in 10.0 mi SSW 15.0 mph - N/A   Mostly Cloudy
9:53 AM 12.9 °F -2.2 °F 5.0 °F 71% 30.43 in 10.0 mi SSW 13.8 mph - N/A   Mostly Cloudy
10:53 AM 12.9 °F -1.6 °F 3.9 °F 67% 30.42 in 10.0 mi SSW 12.7 mph - N/A   Overcast
11:53 AM 15.1 °F -2.0 °F 3.0 °F 59% 30.39 in 10.0 mi SW 19.6 mph 24.2 mph N/A   Overcast
12:53 PM 14.0 °F -3.4 °F 1.0 °F 56% 30.35 in 10.0 mi SW 19.6 mph - N/A   Overcast
1:53 PM 14.0 °F -3.9 °F -2.0 °F 49% 30.32 in 10.0 mi SSW 20.7 mph - N/A   Overcast
2:53 PM 15.1 °F -0.6 °F -0.0 °F 51% 30.30 in 10.0 mi SSW 16.1 mph - N/A   Scattered Clouds
3:53 PM 16.0 °F 0.1 °F -0.0 °F 49% 30.29 in 10.0 mi SSW 17.3 mph - N/A   Scattered Clouds
4:53 PM 15.1 °F 1.1 °F -0.9 °F 49% 30.28 in 10.0 mi SSW 12.7 mph - N/A   Scattered Clouds
5:53 PM 15.1 °F -0.1 °F -0.0 °F 51% 30.28 in 10.0 mi SSW 15.0 mph - N/A   Scattered Clouds
6:53 PM 14.0 °F 1.2 °F -0.0 °F 54% 30.27 in 10.0 mi SSW 10.4 mph - N/A   Scattered Clouds
7:53 PM 15.1 °F 1.8 °F 3.0 °F 59% 30.27 in 10.0 mi SW 11.5 mph - N/A   Scattered Clouds
8:16 PM 15.8 °F 2.1 °F 3.2 °F 58% 30.23 in 10.0 mi SW 12.7 mph - N/A   Mostly Cloudy
8:53 PM 18.0 °F 3.1 °F 8.1 °F 65% 30.26 in 10.0 mi SW 16.1 mph - N/A   Mostly Cloudy
9:53 PM 18.0 °F 3.6 °F 8.1 °F 65% 30.25 in 10.0 mi SW 15.0 mph - N/A   Overcast
10:53 PM 18.0 °F 3.1 °F 9.0 °F 68% 30.23 in 10.0 mi SW 16.1 mph - N/A   Overcast
11:53 PM 18.0 °F 4.8 °F 10.0 °F 71% 30.22 in 10.0 mi SSW 12.7 mph - N/A   Overcast